Time,TemperatureF,DewpointF,PressureIn,WindDirection,WindDirectionDegrees,WindSpeedMPH,WindSpeedGustMPH,Humidity,HourlyPrecipIn,Conditions,Clouds,dailyrainin,SoftwareType,DateUTC
2013-04-06 00:01:00,41.5,4.3,32.04,NNW,344,0.0,0.0,21,0.00,NA,NA,-99.99,wxupload 3.4,2013-04-06 04:01:00,
2013-04-06 00:02:00,41.2,4.0,32.07,NNE,22,0.0,0.0,21,0.00,NA,NA,-99.99,wxupload 3.4,2013-04-06 04:02:00,
2013-04-06 00:06:00,41.2,4.0,32.07,NW,325,0.0,0.0,21,0.00,NA,NA,-99.99,wxupload 3.4,2013-04-06 04:06:00,
2013-04-06 00:14:00,41.0,3.9,32.07,North,9,0.0,0.0,21,0.00,NA,NA,-99.99,wxupload 3.4,2013-04-06 04:14:00,
2013-04-06 00:20:00,40.6,3.5,32.07,NNE,21,0.0,3.0,21,0.00,NA,NA,-99.99,wxupload 3.4,2013-04-06 04:20:00,
2013-04-06 00:27:00,41.4,4.2,32.07,NNE,24,3.0,8.0,21,0.00,NA,NA,-99.99,wxupload 3.4,2013-04-06 04:27:00,
2013-04-06 00:32:00,41.5,4.3,32.07,NNE,13,0.0,2.0,21,0.00,NA,NA,-99.99,wxupload 3.4,2013-04-06 04:32:00,
2013-04-06 00:39:00,41.4,4.2,32.07,North,2,3.0,3.0,21,0.00,NA,NA,-99.99,wxupload 3.4,2013-04-06 04:39:00,
2013-04-06 00:44:00,41.5,4.3,32.07,NE,40,0.0,0.0,21,0.00,NA,NA,-99.99,wxupload 3.4,2013-04-06 04:44:00,
2013-04-06 00:50:00,41.4,4.2,32.07,NNW,339,0.0,4.0,21,0.00,NA,NA,-99.99,wxupload 3.4,2013-04-06 04:50:00,
2013-04-06 00:57:00,40.8,3.7,32.07,NNE,13,0.0,2.0,21,0.00,NA,NA,-99.99,wxupload 3.4,2013-04-06 04:57:00,
2013-04-06 01:02:00,41.0,3.9,32.10,North,353,3.0,3.0,21,0.00,NA,NA,-99.99,wxupload 3.4,2013-04-06 05:02:00,
2013-04-06 01:10:00,40.6,3.5,32.10,NE,42,0.0,3.0,21,0.00,NA,NA,-99.99,wxupload 3.4,2013-04-06 05:10:00,
2013-04-06 01:16:00,40.3,3.2,32.10,NE,40,0.0,3.0,21,0.00,NA,NA,-99.99,wxupload 3.4,2013-04-06 05:16:00,
2013-04-06 01:23:00,39.9,2.9,32.10,North,1,0.0,0.0,21,0.00,NA,NA,-99.99,wxupload 3.4,2013-04-06 05:23:00,
2013-04-06 01:29:00,39.4,2.5,32.10,NE,35,0.0,0.0,21,0.00,NA,NA,-99.99,wxupload 3.4,2013-04-06 05:29:00,
2013-04-06 01:34:00,39.0,2.2,32.10,East,81,0.0,0.0,21,0.00,NA,NA,-99.99,wxupload 3.4,2013-04-06 05:34:00,
2013-04-06 01:41:00,38.5,1.7,32.10,ENE,64,0.0,0.0,21,0.00,NA,NA,-99.99,wxupload 3.4,2013-04-06 05:41:00,
2013-04-06 01:46:00,38.1,1.4,32.10,NNW,334,0.0,4.0,21,0.00,NA,NA,-99.99,wxupload 3.4,2013-04-06 05:46:00,
2013-04-06 01:53:00,37.9,1.2,32.10,North,350,0.0,0.0,21,0.00,NA,NA,-99.99,wxupload 3.4,2013-04-06 05:53:00,
2013-04-06 02:01:00,37.6,0.9,32.10,NNE,21,0.0,0.0,21,0.00,NA,NA,-99.99,wxupload 3.4,2013-04-06 06:01:00,
2013-04-06 02:06:00,37.4,0.8,32.10,NNE,25,0.0,0.0,21,0.00,NA,NA,-99.99,wxupload 3.4,2013-04-06 06:06:00,
2013-04-06 02:12:00,36.9,1.3,32.10,NNE,25,0.0,0.0,22,0.00,NA,NA,-99.99,wxupload 3.4,2013-04-06 06:12:00,
2013-04-06 02:20:00,36.1,0.7,32.10,NNE,25,0.0,0.0,22,0.00,NA,NA,-99.99,wxupload 3.4,2013-04-06 06:20:00,
2013-04-06 02:27:00,35.6,0.2,32.10,NNE,25,0.0,0.0,22,0.00,NA,NA,-99.99,wxupload 3.4,2013-04-06 06:27:00,
2013-04-06 02:32:00,35.4,0.1,32.10,NNE,25,0.0,0.0,22,0.00,NA,NA,-99.99,wxupload 3.4,2013-04-06 06:32:00,
2013-04-06 02:39:00,35.1,-0.2,32.10,NNE,25,0.0,0.0,22,0.00,NA,NA,-99.99,wxupload 3.4,2013-04-06 06:39:00,
2013-04-06 02:45:00,34.9,-0.4,32.10,NNE,25,0.0,0.0,22,0.00,NA,NA,-99.99,wxupload 3.4,2013-04-06 06:45:00,
2013-04-06 02:50:00,34.5,-0.7,32.13,NNE,25,0.0,0.0,22,0.00,NA,NA,-99.99,wxupload 3.4,2013-04-06 06:50:00,
2013-04-06 02:57:00,34.0,-1.2,32.13,NNE,25,0.0,0.0,22,0.00,NA,NA,-99.99,wxupload 3.4,2013-04-06 06:57:00,
2013-04-06 03:03:00,33.3,-0.8,32.13,NNE,25,0.0,0.0,23,0.00,NA,NA,-99.99,wxupload 3.4,2013-04-06 07:03:00,
2013-04-06 03:10:00,32.9,-1.1,32.13,North,5,0.0,0.0,23,0.00,NA,NA,-99.99,wxupload 3.4,2013-04-06 07:10:00,
2013-04-06 03:16:00,33.1,0.8,32.13,North,357,0.0,0.0,25,0.00,NA,NA,-99.99,wxupload 3.4,2013-04-06 07:16:00,
2013-04-06 03:23:00,33.4,1.1,32.13,NNW,340,0.0,3.0,25,0.00,NA,NA,-99.99,wxupload 3.4,2013-04-06 07:23:00,
2013-04-06 03:29:00,33.6,3.8,32.13,NNW,335,0.0,0.0,28,0.00,NA,NA,-99.99,wxupload 3.4,2013-04-06 07:29:00,
2013-04-06 03:34:00,33.8,3.1,32.13,North,357,0.0,0.0,27,0.00,NA,NA,-99.99,wxupload 3.4,2013-04-06 07:34:00,
2013-04-06 03:41:00,34.0,3.3,32.13,North,353,0.0,0.0,27,0.00,NA,NA,-99.99,wxupload 3.4,2013-04-06 07:41:00,
2013-04-06 03:46:00,33.8,3.1,32.13,North,353,0.0,0.0,27,0.00,NA,NA,-99.99,wxupload 3.4,2013-04-06 07:46:00,
2013-04-06 03:52:00,33.8,3.1,32.13,North,357,0.0,0.0,27,0.00,NA,NA,-99.99,wxupload 3.4,2013-04-06 07:52:00,
2013-04-06 04:01:00,33.8,3.1,32.13,North,357,0.0,0.0,27,0.00,NA,NA,-99.99,wxupload 3.4,2013-04-06 08:01:00,
2013-04-06 04:06:00,33.6,3.8,32.13,North,357,0.0,0.0,28,0.00,NA,NA,-99.99,wxupload 3.4,2013-04-06 08:06:00,
2013-04-06 04:12:00,33.3,3.5,32.13,SW,222,0.0,0.0,28,0.00,NA,NA,-99.99,wxupload 3.4,2013-04-06 08:12:00,
2013-04-06 04:19:00,32.7,3.0,32.13,South,191,0.0,0.0,28,0.00,NA,NA,-99.99,wxupload 3.4,2013-04-06 08:19:00,
2013-04-06 04:24:00,32.4,2.7,32.13,South,191,0.0,0.0,28,0.00,NA,NA,-99.99,wxupload 3.4,2013-04-06 08:24:00,
2013-04-06 04:30:00,32.0,2.3,32.13,South,191,0.0,0.0,28,0.00,NA,NA,-99.99,wxupload 3.4,2013-04-06 08:30:00,
2013-04-06 04:37:00,31.3,1.7,32.13,South,191,0.0,0.0,28,0.00,NA,NA,-99.99,wxupload 3.4,2013-04-06 08:37:00,
2013-04-06 04:42:00,30.9,1.4,32.13,South,191,0.0,0.0,28,0.00,NA,NA,-99.99,wxupload 3.4,2013-04-06 08:42:00,
2013-04-06 04:48:00,30.2,0.8,32.16,South,191,0.0,0.0,28,0.00,NA,NA,-99.99,wxupload 3.4,2013-04-06 08:48:00,
2013-04-06 04:55:00,29.7,0.3,32.16,South,191,0.0,0.0,28,0.00,NA,NA,-99.99,wxupload 3.4,2013-04-06 08:55:00,
2013-04-06 05:00:00,29.5,0.1,32.16,South,191,0.0,0.0,28,0.00,NA,NA,-99.99,wxupload 3.4,2013-04-06 09:00:00,
2013-04-06 05:06:00,29.1,-0.2,32.16,South,191,0.0,0.0,28,0.00,NA,NA,-99.99,wxupload 3.4,2013-04-06 09:06:00,
2013-04-06 05:13:00,28.9,1.1,32.16,South,191,0.0,0.0,30,0.00,NA,NA,-99.99,wxupload 3.4,2013-04-06 09:13:00,
2013-04-06 05:18:00,28.6,0.8,32.16,South,191,0.0,0.0,30,0.00,NA,NA,-99.99,wxupload 3.4,2013-04-06 09:18:00,
2013-04-06 05:24:00,28.4,1.4,32.16,South,191,0.0,0.0,31,0.00,NA,NA,-99.99,wxupload 3.4,2013-04-06 09:24:00,
2013-04-06 05:31:00,28.0,1.0,32.16,South,191,0.0,0.0,31,0.00,NA,NA,-99.99,wxupload 3.4,2013-04-06 09:31:00,
2013-04-06 05:36:00,27.9,0.9,32.16,South,191,0.0,0.0,31,0.00,NA,NA,-99.99,wxupload 3.4,2013-04-06 09:36:00,
2013-04-06 05:43:00,27.7,0.7,32.16,South,191,0.0,0.0,31,0.00,NA,NA,-99.99,wxupload 3.4,2013-04-06 09:43:00,
2013-04-06 05:49:00,27.5,0.6,32.16,South,191,0.0,0.0,31,0.00,NA,NA,-99.99,wxupload 3.4,2013-04-06 09:49:00,
2013-04-06 05:56:00,27.1,0.2,32.16,South,191,0.0,0.0,31,0.00,NA,NA,-99.99,wxupload 3.4,2013-04-06 09:56:00,
2013-04-06 06:02:00,27.0,0.1,32.16,South,191,0.0,0.0,31,0.00,NA,NA,-99.99,wxupload 3.4,2013-04-06 10:02:00,
2013-04-06 06:09:00,26.8,-0.1,32.16,South,191,0.0,0.0,31,0.00,NA,NA,-99.99,wxupload 3.4,2013-04-06 10:09:00,
2013-04-06 06:14:00,26.8,0.6,32.16,South,191,0.0,0.0,32,0.00,NA,NA,-99.99,wxupload 3.4,2013-04-06 10:14:00,
2013-04-06 06:20:00,26.8,0.6,32.19,South,191,0.0,0.0,32,0.00,NA,NA,-99.99,wxupload 3.4,2013-04-06 10:20:00,
2013-04-06 06:27:00,26.2,0.8,32.19,South,191,0.0,0.0,33,0.00,NA,NA,-99.99,wxupload 3.4,2013-04-06 10:27:00,
2013-04-06 06:32:00,26.1,1.3,32.19,South,191,0.0,0.0,34,0.00,NA,NA,-99.99,wxupload 3.4,2013-04-06 10:32:00,
2013-04-06 06:40:00,26.2,1.4,32.19,South,191,0.0,0.0,34,0.00,NA,NA,-99.99,wxupload 3.4,2013-04-06 10:40:00,
2013-04-06 06:50:00,26.4,1.6,32.19,South,191,0.0,0.0,34,0.00,NA,NA,-99.99,wxupload 3.4,2013-04-06 10:50:00,
2013-04-06 06:56:00,26.6,1.8,32.19,South,191,0.0,0.0,34,0.00,NA,NA,-99.99,wxupload 3.4,2013-04-06 10:56:00,
2013-04-06 07:03:00,27.0,2.1,32.19,South,191,0.0,0.0,34,0.00,NA,NA,-99.99,wxupload 3.4,2013-04-06 11:03:00,
2013-04-06 07:08:00,26.8,2.6,32.19,South,191,0.0,0.0,35,0.00,NA,NA,-99.99,wxupload 3.4,2013-04-06 11:08:00,
2013-04-06 07:14:00,26.8,2.6,32.19,South,191,0.0,0.0,35,0.00,NA,NA,-99.99,wxupload 3.4,2013-04-06 11:14:00,
2013-04-06 07:21:00,27.1,3.5,32.22,South,191,0.0,0.0,36,0.00,NA,NA,-99.99,wxupload 3.4,2013-04-06 11:21:00,
2013-04-06 07:27:00,27.0,4.5,32.22,South,191,0.0,0.0,38,0.00,NA,NA,-99.99,wxupload 3.4,2013-04-06 11:27:00,
2013-04-06 07:32:00,26.8,6.1,32.22,South,191,0.0,0.0,41,0.00,NA,NA,-99.99,wxupload 3.4,2013-04-06 11:32:00,
2013-04-06 07:36:00,27.0,6.2,32.22,South,191,0.0,0.0,41,0.00,NA,NA,-99.99,wxupload 3.4,2013-04-06 11:36:00,
2013-04-06 07:42:00,27.9,7.1,32.22,South,191,0.0,0.0,41,0.00,NA,NA,-99.99,wxupload 3.4,2013-04-06 11:42:00,
2013-04-06 07:50:00,29.1,8.2,32.22,South,191,0.0,0.0,41,0.00,NA,NA,-99.99,wxupload 3.4,2013-04-06 11:50:00,
2013-04-06 07:57:00,29.8,8.9,32.22,SE,127,0.0,0.0,41,0.00,NA,NA,-99.99,wxupload 3.4,2013-04-06 11:57:00,
2013-04-06 08:02:00,30.2,9.2,32.22,ESE,103,0.0,0.0,41,0.00,NA,NA,-99.99,wxupload 3.4,2013-04-06 12:02:00,
2013-04-06 08:08:00,30.9,9.3,32.22,ESE,123,0.0,0.0,40,0.00,NA,NA,-99.99,wxupload 3.4,2013-04-06 12:08:00,
2013-04-06 08:15:00,31.6,10.0,32.22,ESE,120,0.0,0.0,40,0.00,NA,NA,-99.99,wxupload 3.4,2013-04-06 12:15:00,
2013-04-06 08:20:00,32.2,10.4,32.25,ENE,65,0.0,3.0,40,0.00,NA,NA,-99.99,wxupload 3.4,2013-04-06 12:20:00,
2013-04-06 08:27:00,32.4,10.6,32.25,ESE,120,0.0,0.0,40,0.00,NA,NA,-99.99,wxupload 3.4,2013-04-06 12:27:00,
2013-04-06 08:33:00,32.9,11.1,32.25,ESE,115,0.0,0.0,40,0.00,NA,NA,-99.99,wxupload 3.4,2013-04-06 12:33:00,
2013-04-06 08:39:00,33.8,11.4,32.25,East,97,0.0,3.0,39,0.00,NA,NA,-99.99,wxupload 3.4,2013-04-06 12:39:00,
2013-04-06 08:45:00,34.9,11.1,32.25,SE,144,0.0,0.0,37,0.00,NA,NA,-99.99,wxupload 3.4,2013-04-06 12:45:00,
2013-04-06 08:51:00,35.1,11.3,32.25,WNW,287,0.0,2.0,37,0.00,NA,NA,-99.99,wxupload 3.4,2013-04-06 12:51:00,
2013-04-06 08:59:00,36.3,10.5,32.25,ENE,65,2.0,3.0,34,0.00,NA,NA,-99.99,wxupload 3.4,2013-04-06 12:59:00,
2013-04-06 09:04:00,36.9,9.6,32.25,NW,318,0.0,3.0,32,0.00,NA,NA,-99.99,wxupload 3.4,2013-04-06 13:04:00,
2013-04-06 09:12:00,37.6,9.6,32.25,North,353,0.0,0.0,31,0.00,NA,NA,-99.99,wxupload 3.4,2013-04-06 13:12:00,
2013-04-06 09:22:00,37.9,9.1,32.28,ENE,62,0.0,0.0,30,0.00,NA,NA,-99.99,wxupload 3.4,2013-04-06 13:22:00,
2013-04-06 09:29:00,38.3,9.5,32.28,NNE,25,0.0,0.0,30,0.00,NA,NA,-99.99,wxupload 3.4,2013-04-06 13:29:00,
2013-04-06 09:35:00,38.7,9.0,32.25,NE,52,0.0,3.0,29,0.00,NA,NA,-99.99,wxupload 3.4,2013-04-06 13:35:00,
2013-04-06 09:40:00,38.8,9.2,32.25,NNE,26,0.0,0.0,29,0.00,NA,NA,-99.99,wxupload 3.4,2013-04-06 13:40:00,
2013-04-06 09:47:00,39.2,9.5,32.25,NE,48,0.0,0.0,29,0.00,NA,NA,-99.99,wxupload 3.4,2013-04-06 13:47:00,
2013-04-06 09:52:00,39.6,9.0,32.25,ENE,75,0.0,2.0,28,0.00,NA,NA,-99.99,wxupload 3.4,2013-04-06 13:52:00,
2013-04-06 10:00:00,39.9,7.7,32.25,NNE,14,0.0,3.0,26,0.00,NA,NA,-99.99,wxupload 3.4,2013-04-06 14:00:00,
2013-04-06 10:07:00,40.3,8.0,32.25,ENE,66,0.0,2.0,26,0.00,NA,NA,-99.99,wxupload 3.4,2013-04-06 14:07:00,
2013-04-06 10:13:00,40.5,8.1,32.25,SE,142,0.0,3.0,26,0.00,NA,NA,-99.99,wxupload 3.4,2013-04-06 14:13:00,
2013-04-06 10:20:00,41.0,5.9,32.25,NW,326,0.0,0.0,23,0.00,NA,NA,-99.99,wxupload 3.4,2013-04-06 14:20:00,
2013-04-06 10:26:00,41.7,6.5,32.25,ESE,122,0.0,2.0,23,0.00,NA,NA,-99.99,wxupload 3.4,2013-04-06 14:26:00,
2013-04-06 10:33:00,42.1,6.8,32.25,NNW,344,0.0,4.0,23,0.00,NA,NA,-99.99,wxupload 3.4,2013-04-06 14:33:00,
2013-04-06 10:39:00,42.8,7.4,32.25,ESE,110,0.0,3.0,23,0.00,NA,NA,-99.99,wxupload 3.4,2013-04-06 14:39:00,
2013-04-06 10:44:00,42.8,7.4,32.25,NNE,31,0.0,3.0,23,0.00,NA,NA,-99.99,wxupload 3.4,2013-04-06 14:44:00,
2013-04-06 10:51:00,43.0,7.6,32.25,East,88,4.0,5.0,23,0.00,NA,NA,-99.99,wxupload 3.4,2013-04-06 14:51:00,
2013-04-06 10:56:00,43.3,7.9,32.25,East,96,0.0,5.0,23,0.00,NA,NA,-99.99,wxupload 3.4,2013-04-06 14:56:00,
2013-04-06 11:02:00,43.5,8.0,32.25,ESE,118,2.0,4.0,23,0.00,NA,NA,-99.99,wxupload 3.4,2013-04-06 15:02:00,
2013-04-06 11:09:00,44.1,8.5,32.25,SSE,168,0.0,4.0,23,0.00,NA,NA,-99.99,wxupload 3.4,2013-04-06 15:09:00,
2013-04-06 11:14:00,44.2,8.7,32.25,East,100,0.0,0.0,23,0.00,NA,NA,-99.99,wxupload 3.4,2013-04-06 15:14:00,
2013-04-06 11:20:00,45.0,8.3,32.25,East,89,3.0,4.0,22,0.00,NA,NA,-99.99,wxupload 3.4,2013-04-06 15:20:00,
2013-04-06 11:27:00,46.0,9.2,32.25,WNW,288,0.0,3.0,22,0.00,NA,NA,-99.99,wxupload 3.4,2013-04-06 15:27:00,
2013-04-06 11:32:00,46.0,9.2,32.25,SE,126,0.0,2.0,22,0.00,NA,NA,-99.99,wxupload 3.4,2013-04-06 15:32:00,
2013-04-06 11:38:00,46.4,6.2,32.25,NNE,22,0.0,0.0,19,0.00,NA,NA,-99.99,wxupload 3.4,2013-04-06 15:38:00,
2013-04-06 11:45:00,47.1,6.8,32.25,ESE,114,0.0,4.0,19,0.00,NA,NA,-99.99,wxupload 3.4,2013-04-06 15:45:00,
2013-04-06 11:50:00,48.0,10.9,32.25,ESE,123,0.0,4.0,22,0.00,NA,NA,-99.99,wxupload 3.4,2013-04-06 15:50:00,
2013-04-06 11:58:00,48.6,8.1,32.25,ENE,69,2.0,5.0,19,0.00,NA,NA,-99.99,wxupload 3.4,2013-04-06 15:58:00,
2013-04-06 12:05:00,48.9,8.4,32.25,NE,54,0.0,2.0,19,0.00,NA,NA,-99.99,wxupload 3.4,2013-04-06 16:05:00,
2013-04-06 12:11:00,49.6,9.0,32.25,North,0,0.0,0.0,19,0.00,NA,NA,-99.99,wxupload 3.4,2013-04-06 16:11:00,
2013-04-06 12:16:00,50.0,9.3,32.25,South,176,0.0,2.0,19,0.00,NA,NA,-99.99,wxupload 3.4,2013-04-06 16:16:00,
2013-04-06 12:23:00,52.3,13.6,32.25,SSE,168,3.0,5.0,21,0.00,NA,NA,-99.99,wxupload 3.4,2013-04-06 16:23:00,
2013-04-06 12:29:00,52.9,10.5,32.25,North,357,0.0,4.0,18,0.00,NA,NA,-99.99,wxupload 3.4,2013-04-06 16:29:00,
2013-04-06 12:34:00,52.0,9.7,32.25,South,180,0.0,0.0,18,0.00,NA,NA,-99.99,wxupload 3.4,2013-04-06 16:34:00,
2013-04-06 12:41:00,52.9,10.5,32.25,South,190,0.0,4.0,18,0.00,NA,NA,-99.99,wxupload 3.4,2013-04-06 16:41:00,
2013-04-06 12:47:00,54.0,11.4,32.25,SSW,197,0.0,3.0,18,0.00,NA,NA,-99.99,wxupload 3.4,2013-04-06 16:47:00,
2013-04-06 12:52:00,54.5,11.9,32.25,South,190,3.0,4.0,18,0.00,NA,NA,-99.99,wxupload 3.4,2013-04-06 16:52:00,
2013-04-06 13:00:00,56.7,12.4,32.25,East,96,2.0,3.0,17,0.00,NA,NA,-99.99,wxupload 3.4,2013-04-06 17:00:00,
2013-04-06 13:07:00,57.6,13.1,32.25,North,8,0.0,0.0,17,0.00,NA,NA,-99.99,wxupload 3.4,2013-04-06 17:07:00,
2013-04-06 13:13:00,57.4,13.0,32.25,SSW,201,3.0,6.0,17,0.00,NA,NA,-99.99,wxupload 3.4,2013-04-06 17:13:00,
2013-04-06 13:20:00,58.1,13.6,32.25,ESE,109,3.0,4.0,17,0.00,NA,NA,-99.99,wxupload 3.4,2013-04-06 17:20:00,
2013-04-06 13:26:00,59.4,14.6,32.25,East,94,3.0,3.0,17,0.00,NA,NA,-99.99,wxupload 3.4,2013-04-06 17:26:00,
2013-04-06 13:33:00,59.7,14.9,32.25,SE,127,4.0,5.0,17,0.00,NA,NA,-99.99,wxupload 3.4,2013-04-06 17:33:00,
2013-04-06 13:41:00,59.7,14.9,32.25,WSW,238,3.0,5.0,17,0.00,NA,NA,-99.99,wxupload 3.4,2013-04-06 17:41:00,
2013-04-06 13:46:00,60.4,15.5,32.25,SSE,153,2.0,4.0,17,0.00,NA,NA,-99.99,wxupload 3.4,2013-04-06 17:46:00,
2013-04-06 13:53:00,60.6,15.7,32.25,South,179,0.0,4.0,17,0.00,NA,NA,-99.99,wxupload 3.4,2013-04-06 17:53:00,
2013-04-06 13:59:00,60.6,15.7,32.25,WSW,239,0.0,3.0,17,0.00,NA,NA,-99.99,wxupload 3.4,2013-04-06 17:59:00,
2013-04-06 14:05:00,60.8,14.4,32.25,South,173,4.0,8.0,16,0.00,NA,NA,-99.99,wxupload 3.4,2013-04-06 18:05:00,
2013-04-06 14:12:00,61.7,15.2,32.25,SSE,152,0.0,0.0,16,0.00,NA,NA,-99.99,wxupload 3.4,2013-04-06 18:12:00,
2013-04-06 14:20:00,63.0,16.2,32.22,SSE,157,4.0,7.0,16,0.00,NA,NA,-99.99,wxupload 3.4,2013-04-06 18:20:00,
2013-04-06 14:27:00,63.0,16.2,32.22,SW,219,0.0,2.0,16,0.00,NA,NA,-99.99,wxupload 3.4,2013-04-06 18:27:00,
2013-04-06 14:32:00,63.1,16.4,32.22,SSW,199,3.0,3.0,16,0.00,NA,NA,-99.99,wxupload 3.4,2013-04-06 18:32:00,
2013-04-06 14:38:00,63.5,16.7,32.22,South,189,3.0,5.0,16,0.00,NA,NA,-99.99,wxupload 3.4,2013-04-06 18:38:00,
2013-04-06 14:45:00,64.4,15.9,32.22,South,187,3.0,4.0,15,0.00,NA,NA,-99.99,wxupload 3.4,2013-04-06 18:45:00,
2013-04-06 14:50:00,64.0,17.1,32.22,SSW,199,0.0,3.0,16,0.00,NA,NA,-99.99,wxupload 3.4,2013-04-06 18:50:00,
2013-04-06 14:56:00,64.8,16.2,32.22,South,173,0.0,0.0,15,0.00,NA,NA,-99.99,wxupload 3.4,2013-04-06 18:56:00,
2013-04-06 15:03:00,65.5,16.8,32.22,South,176,3.0,6.0,15,0.00,NA,NA,-99.99,wxupload 3.4,2013-04-06 19:03:00,
2013-04-06 15:09:00,66.0,17.2,32.22,South,169,6.0,8.0,15,0.00,NA,NA,-99.99,wxupload 3.4,2013-04-06 19:09:00,
2013-04-06 15:14:00,66.4,17.5,32.22,South,170,4.0,8.0,15,0.00,NA,NA,-99.99,wxupload 3.4,2013-04-06 19:14:00,
2013-04-06 15:23:00,65.8,17.1,32.22,NNE,22,0.0,0.0,15,0.00,NA,NA,-99.99,wxupload 3.4,2013-04-06 19:23:00,
2013-04-06 15:29:00,65.5,16.8,32.22,South,177,5.0,6.0,15,0.00,NA,NA,-99.99,wxupload 3.4,2013-04-06 19:29:00,
2013-04-06 15:34:00,66.0,17.2,32.19,ESE,117,6.0,6.0,15,0.00,NA,NA,-99.99,wxupload 3.4,2013-04-06 19:34:00,
2013-04-06 15:42:00,65.8,17.1,32.19,SSE,162,2.0,5.0,15,0.00,NA,NA,-99.99,wxupload 3.4,2013-04-06 19:42:00,
2013-04-06 15:49:00,65.8,17.1,32.19,SSW,208,0.0,0.0,15,0.00,NA,NA,-99.99,wxupload 3.4,2013-04-06 19:49:00,
2013-04-06 15:54:00,66.2,17.4,32.19,SSE,147,3.0,4.0,15,0.00,NA,NA,-99.99,wxupload 3.4,2013-04-06 19:54:00,
2013-04-06 16:00:00,66.7,17.8,32.19,SSE,149,6.0,6.0,15,0.00,NA,NA,-99.99,wxupload 3.4,2013-04-06 20:00:00,
2013-04-06 16:07:00,67.1,18.1,32.19,East,89,4.0,6.0,15,0.00,NA,NA,-99.99,wxupload 3.4,2013-04-06 20:07:00,
2013-04-06 16:12:00,66.9,18.0,32.19,SW,228,0.0,0.0,15,0.00,NA,NA,-99.99,wxupload 3.4,2013-04-06 20:12:00,
2013-04-06 16:18:00,66.7,17.8,32.19,SSW,205,0.0,0.0,15,0.00,NA,NA,-99.99,wxupload 3.4,2013-04-06 20:18:00,
2013-04-06 16:25:00,66.9,18.0,32.19,SSE,152,3.0,6.0,15,0.00,NA,NA,-99.99,wxupload 3.4,2013-04-06 20:25:00,
2013-04-06 16:30:00,67.1,18.1,32.19,NW,323,0.0,4.0,15,0.00,NA,NA,-99.99,wxupload 3.4,2013-04-06 20:30:00,
2013-04-06 16:36:00,67.1,18.1,32.19,SE,144,0.0,5.0,15,0.00,NA,NA,-99.99,wxupload 3.4,2013-04-06 20:36:00,
2013-04-06 16:43:00,66.9,18.0,32.19,SW,224,0.0,3.0,15,0.00,NA,NA,-99.99,wxupload 3.4,2013-04-06 20:43:00,
2013-04-06 16:49:00,67.1,18.1,32.19,East,81,3.0,6.0,15,0.00,NA,NA,-99.99,wxupload 3.4,2013-04-06 20:49:00,
2013-04-06 16:59:00,67.3,18.3,32.19,South,175,2.0,4.0,15,0.00,NA,NA,-99.99,wxupload 3.4,2013-04-06 20:59:00,
2013-04-06 17:04:00,66.6,17.7,32.19,South,169,0.0,0.0,15,0.00,NA,NA,-99.99,wxupload 3.4,2013-04-06 21:04:00,
2013-04-06 17:11:00,66.4,17.5,32.19,SSE,165,4.0,6.0,15,0.00,NA,NA,-99.99,wxupload 3.4,2013-04-06 21:11:00,
2013-04-06 17:17:00,65.7,16.9,32.19,SSW,212,4.0,6.0,15,0.00,NA,NA,-99.99,wxupload 3.4,2013-04-06 21:17:00,
2013-04-06 17:22:00,64.9,16.3,32.19,ESE,112,4.0,5.0,15,0.00,NA,NA,-99.99,wxupload 3.4,2013-04-06 21:22:00,
2013-04-06 17:29:00,64.0,17.1,32.19,SSW,209,0.0,4.0,16,0.00,NA,NA,-99.99,wxupload 3.4,2013-04-06 21:29:00,
2013-04-06 17:35:00,63.0,16.2,32.19,East,101,2.0,4.0,16,0.00,NA,NA,-99.99,wxupload 3.4,2013-04-06 21:35:00,
2013-04-06 17:40:00,62.2,15.6,32.19,SSE,154,0.0,3.0,16,0.00,NA,NA,-99.99,wxupload 3.4,2013-04-06 21:40:00,
2013-04-06 17:47:00,61.3,14.9,32.19,South,191,4.0,5.0,16,0.00,NA,NA,-99.99,wxupload 3.4,2013-04-06 21:47:00,
2013-04-06 17:53:00,60.3,15.4,32.19,South,190,0.0,0.0,17,0.00,NA,NA,-99.99,wxupload 3.4,2013-04-06 21:53:00,
2013-04-06 17:59:00,59.7,14.9,32.19,SE,145,3.0,4.0,17,0.00,NA,NA,-99.99,wxupload 3.4,2013-04-06 21:59:00,
2013-04-06 18:05:00,59.0,14.3,32.19,SSE,161,3.0,6.0,17,0.00,NA,NA,-99.99,wxupload 3.4,2013-04-06 22:05:00,
2013-04-06 18:11:00,58.5,13.9,32.19,South,181,3.0,4.0,17,0.00,NA,NA,-99.99,wxupload 3.4,2013-04-06 22:11:00,
2013-04-06 18:16:00,58.1,13.6,32.19,South,177,0.0,4.0,17,0.00,NA,NA,-99.99,wxupload 3.4,2013-04-06 22:16:00,
2013-04-06 18:23:00,57.6,13.1,32.19,SSE,160,3.0,4.0,17,0.00,NA,NA,-99.99,wxupload 3.4,2013-04-06 22:23:00,
2013-04-06 18:31:00,56.8,12.5,32.19,SSE,164,0.0,4.0,17,0.00,NA,NA,-99.99,wxupload 3.4,2013-04-06 22:31:00,
2013-04-06 18:37:00,56.5,12.2,32.19,SSE,161,3.0,5.0,17,0.00,NA,NA,-99.99,wxupload 3.4,2013-04-06 22:37:00,
2013-04-06 18:42:00,56.1,11.9,32.19,ESE,113,0.0,3.0,17,0.00,NA,NA,-99.99,wxupload 3.4,2013-04-06 22:42:00,
2013-04-06 18:49:00,55.8,11.6,32.22,SSE,155,0.0,3.0,17,0.00,NA,NA,-99.99,wxupload 3.4,2013-04-06 22:49:00,
2013-04-06 18:55:00,55.0,12.3,32.22,SSE,150,3.0,3.0,18,0.00,NA,NA,-99.99,wxupload 3.4,2013-04-06 22:55:00,
2013-04-06 19:00:00,54.5,11.9,32.22,SE,139,0.0,0.0,18,0.00,NA,NA,-99.99,wxupload 3.4,2013-04-06 23:00:00,
2013-04-06 19:07:00,53.8,11.3,32.22,SE,131,2.0,3.0,18,0.00,NA,NA,-99.99,wxupload 3.4,2013-04-06 23:07:00,
2013-04-06 19:13:00,53.2,10.8,32.22,SSE,165,0.0,4.0,18,0.00,NA,NA,-99.99,wxupload 3.4,2013-04-06 23:13:00,
2013-04-06 19:18:00,52.7,10.3,32.22,SSE,160,0.0,3.0,18,0.00,NA,NA,-99.99,wxupload 3.4,2013-04-06 23:18:00,
2013-04-06 19:25:00,52.2,9.9,32.22,South,169,3.0,4.0,18,0.00,NA,NA,-99.99,wxupload 3.4,2013-04-06 23:25:00,
2013-04-06 19:31:00,51.8,9.6,32.22,SSE,167,0.0,0.0,18,0.00,NA,NA,-99.99,wxupload 3.4,2013-04-06 23:31:00,
2013-04-06 19:37:00,51.3,10.4,32.22,SSW,196,4.0,6.0,19,0.00,NA,NA,-99.99,wxupload 3.4,2013-04-06 23:37:00,
2013-04-06 19:43:00,50.9,10.1,32.22,South,188,3.0,5.0,19,0.00,NA,NA,-99.99,wxupload 3.4,2013-04-06 23:43:00,
2013-04-06 19:49:00,50.4,9.6,32.22,South,187,0.0,4.0,19,0.00,NA,NA,-99.99,wxupload 3.4,2013-04-06 23:49:00,
2013-04-06 19:56:00,49.8,9.1,32.22,South,179,0.0,0.0,19,0.00,NA,NA,-99.99,wxupload 3.4,2013-04-06 23:56:00,
2013-04-06 20:02:00,49.5,8.8,32.22,South,191,0.0,5.0,19,0.00,NA,NA,-99.99,wxupload 3.4,2013-04-07 00:02:00,
2013-04-06 20:09:00,49.1,8.5,32.22,SSE,164,2.0,4.0,19,0.00,NA,NA,-99.99,wxupload 3.4,2013-04-07 00:09:00,
2013-04-06 20:14:00,48.7,8.2,32.22,SSE,155,0.0,3.0,19,0.00,NA,NA,-99.99,wxupload 3.4,2013-04-07 00:14:00,
2013-04-06 20:20:00,48.7,8.2,32.22,South,181,0.0,0.0,19,0.00,NA,NA,-99.99,wxupload 3.4,2013-04-07 00:20:00,
2013-04-06 20:29:00,48.0,7.6,32.22,SSW,200,0.0,0.0,19,0.00,NA,NA,-99.99,wxupload 3.4,2013-04-07 00:29:00,
2013-04-06 20:35:00,47.8,7.5,32.22,SSW,201,0.0,0.0,19,0.00,NA,NA,-99.99,wxupload 3.4,2013-04-07 00:35:00,
2013-04-06 20:40:00,47.3,7.0,32.22,SSW,201,0.0,0.0,19,0.00,NA,NA,-99.99,wxupload 3.4,2013-04-07 00:40:00,
2013-04-06 20:47:00,47.1,6.8,32.22,SSW,201,0.0,0.0,19,0.00,NA,NA,-99.99,wxupload 3.4,2013-04-07 00:47:00,
2013-04-06 20:53:00,46.8,6.5,32.22,SSW,212,0.0,0.0,19,0.00,NA,NA,-99.99,wxupload 3.4,2013-04-07 00:53:00,
2013-04-06 20:59:00,46.4,6.2,32.22,SSW,212,0.0,0.0,19,0.00,NA,NA,-99.99,wxupload 3.4,2013-04-07 00:59:00,
2013-04-06 21:05:00,46.0,7.1,32.22,SSW,212,0.0,0.0,20,0.00,NA,NA,-99.99,wxupload 3.4,2013-04-07 01:05:00,
2013-04-06 21:13:00,45.5,6.6,32.22,SSW,212,0.0,0.0,20,0.00,NA,NA,-99.99,wxupload 3.4,2013-04-07 01:13:00,
2013-04-06 21:19:00,45.5,6.6,32.22,SSW,212,0.0,0.0,20,0.00,NA,NA,-99.99,wxupload 3.4,2013-04-07 01:19:00,
2013-04-06 21:24:00,45.3,6.5,32.22,SSW,212,0.0,0.0,20,0.00,NA,NA,-99.99,wxupload 3.4,2013-04-07 01:24:00,
2013-04-06 21:32:00,45.1,6.3,32.19,SSW,212,0.0,0.0,20,0.00,NA,NA,-99.99,wxupload 3.4,2013-04-07 01:32:00,
2013-04-06 21:39:00,44.8,6.0,32.19,SSW,212,0.0,0.0,20,0.00,NA,NA,-99.99,wxupload 3.4,2013-04-07 01:39:00,
2013-04-06 21:45:00,44.6,5.9,32.19,SSW,212,0.0,0.0,20,0.00,NA,NA,-99.99,wxupload 3.4,2013-04-07 01:45:00,
2013-04-06 21:50:00,44.2,5.5,32.22,SSW,212,0.0,0.0,20,0.00,NA,NA,-99.99,wxupload 3.4,2013-04-07 01:50:00,
2013-04-06 21:57:00,43.7,5.1,32.22,SSW,212,0.0,0.0,20,0.00,NA,NA,-99.99,wxupload 3.4,2013-04-07 01:57:00,
2013-04-06 22:03:00,43.5,4.9,32.19,SSW,212,0.0,0.0,20,0.00,NA,NA,-99.99,wxupload 3.4,2013-04-07 02:03:00,
2013-04-06 22:11:00,43.2,4.6,32.19,SSW,212,0.0,0.0,20,0.00,NA,NA,-99.99,wxupload 3.4,2013-04-07 02:11:00,
2013-04-06 22:16:00,42.8,4.3,32.19,SSW,212,0.0,0.0,20,0.00,NA,NA,-99.99,wxupload 3.4,2013-04-07 02:16:00,
2013-04-06 22:23:00,42.4,5.1,32.22,South,181,0.0,0.0,21,0.00,NA,NA,-99.99,wxupload 3.4,2013-04-07 02:23:00,
2013-04-06 22:29:00,42.3,4.9,32.22,South,181,0.0,0.0,21,0.00,NA,NA,-99.99,wxupload 3.4,2013-04-07 02:29:00,
2013-04-06 22:34:00,42.3,7.0,32.22,South,190,0.0,0.0,23,0.00,NA,NA,-99.99,wxupload 3.4,2013-04-07 02:34:00,
2013-04-06 22:43:00,42.4,7.1,32.22,SSW,199,0.0,0.0,23,0.00,NA,NA,-99.99,wxupload 3.4,2013-04-07 02:43:00,
2013-04-06 22:49:00,42.8,7.4,32.19,SSW,197,0.0,5.0,23,0.00,NA,NA,-99.99,wxupload 3.4,2013-04-07 02:49:00,
2013-04-06 22:54:00,43.3,7.9,32.19,SSE,147,2.0,5.0,23,0.00,NA,NA,-99.99,wxupload 3.4,2013-04-07 02:54:00,
2013-04-06 23:01:00,43.5,8.0,32.19,South,182,0.0,8.0,23,0.00,NA,NA,-99.99,wxupload 3.4,2013-04-07 03:01:00,
2013-04-06 23:07:00,43.7,8.2,32.19,SSW,194,4.0,4.0,23,0.00,NA,NA,-99.99,wxupload 3.4,2013-04-07 03:07:00,
2013-04-06 23:12:00,43.7,8.2,32.19,South,181,4.0,5.0,23,0.00,NA,NA,-99.99,wxupload 3.4,2013-04-07 03:12:00,
2013-04-06 23:19:00,44.1,8.5,32.19,SSW,193,0.0,4.0,23,0.00,NA,NA,-99.99,wxupload 3.4,2013-04-07 03:19:00,
2013-04-06 23:25:00,44.1,8.5,32.19,WSW,243,4.0,5.0,23,0.00,NA,NA,-99.99,wxupload 3.4,2013-04-07 03:25:00,
2013-04-06 23:31:00,44.4,8.8,32.19,SSW,202,5.0,5.0,23,0.00,NA,NA,-99.99,wxupload 3.4,2013-04-07 03:31:00,
2013-04-06 23:37:00,44.6,8.0,32.19,SSW,202,5.0,5.0,22,0.00,NA,NA,-99.99,wxupload 3.4,2013-04-07 03:37:00,
2013-04-06 23:43:00,44.6,8.0,32.19,SSE,165,2.0,3.0,22,0.00,NA,NA,-99.99,wxupload 3.4,2013-04-07 03:43:00,
2013-04-06 23:48:00,44.6,8.0,32.19,SW,232,0.0,3.0,22,0.00,NA,NA,-99.99,wxupload 3.4,2013-04-07 03:48:00,
2013-04-06 23:55:00,44.6,8.0,32.19,SSW,196,4.0,8.0,22,0.00,NA,NA,-99.99,wxupload 3.4,2013-04-07 03:55:00,